This demonstration page uses our WeatherBlox Daily Observations layout. Learn more.

Left ArrowRight Arrow

36.17497, -115.13722

Hourly Observations for April 25, 2017

Temp ( °F °C ) Dew Point ( °F °C ) Humidity (%) Winds ( mph kmh ) Pressure ( in mb ) Visibility ( mi km ) Precip ( " mm )
12:53 am 00:53 Clear 72 22.2 21 -6.1 15 15 NNW 20 31 29.62 1003 10 16.0934 N/A
1:53 am 01:53 Clear 71 21.7 16 -8.9 12 12 NNW 21 33 29.62 1003 10 16.0934 N/A
2:53 am 02:53 Clear 69 20.6 14 -10 12 12 NNW 30 48 29.61 1003 10 16.0934 N/A
3:53 am 03:53 Clear 68 20 14 -10 12 12 NNW 28 44 29.62 1003 10 16.0934 N/A
4:53 am 04:53 Clear 67 19.4 15 -9.4 13 13 NNW 23 37 29.67 1005 10 16.0934 N/A
5:53 am 05:53 Clear 66 18.9 16 -8.9 14 14 NNW 24 39 29.7 1006 10 16.0934 N/A
6:53 am 06:53 Sunny 66 18.9 21 -6.1 18 18 N 16 26 29.74 1007 10 16.0934 N/A
7:53 am 07:53 Sunny 67 19.4 20 -6.7 17 17 N 24 39 29.76 1008 10 16.0934 N/A
8:53 am 08:53 Sunny 68 20 21 -6.1 17 17 N 18 30 29.79 1009 10 16.0934 N/A
9:53 am 09:53 Sunny 70 21.1 20 -6.7 15 15 NNW 22 35 29.8 1009 10 16.0934 N/A
10:53 am 10:53 Sunny 72 22.2 19 -7.2 13 13 NNW 17 28 29.8 1009 10 16.0934 N/A
11:53 am 11:53 Sunny 73 22.8 19 -7.2 13 13 N 15 24 29.8 1009 10 16.0934 N/A
12:53 pm 12:53 Sunny 74 23.3 16 -8.9 11 11 N 17 28 29.79 1009 10 16.0934 N/A
1:53 pm 13:53 Sunny 76 24.4 17 -8.3 11 11 N 17 28 29.78 1008 10 16.0934 N/A
2:53 pm 14:53 Sunny 77 25 17 -8.3 10 10 NNW 17 28 29.77 1008 10 16.0934 N/A
3:53 pm 15:53 Sunny 76 24.4 18 -7.8 11 11 N 9 15 29.75 1007 10 16.0934 N/A
4:53 pm 16:53 Sunny 78 25.6 19 -7.2 11 11 N 17 28 29.75 1007 10 16.0934 N/A
5:53 pm 17:53 Sunny 77 25 18 -7.8 11 11 N 14 22 29.75 1008 10 16.0934 N/A
6:53 pm 18:53 Sunny 76 24.4 20 -6.7 12 12 N 10 17 29.77 1008 10 16.0934 N/A
7:53 pm 19:53 Clear 72 22.2 15 -9.4 11 11 E 14 22 29.79 1009 10 16.0934 N/A
8:53 pm 20:53 Clear 70 21.1 15 -9.4 12 12 E 13 20 29.83 1010 10 16.0934 N/A
9:53 pm 21:53 Clear 70 21.1 15 -9.4 12 12 N N/A 29.86 1011 10 16.0934 N/A
10:53 pm 22:53 Clear 67 19.4 17 -8.3 15 15 WSW 3 6 29.86 1011 10 16.0934 N/A
11:53 pm 23:53 Clear 64 17.8 19 -7.2 18 18 N 6 9 29.87 1012 10 16.0934 N/A

Powered by AerisWeather